Temperature
-3 -3 -3 -3 -4 -4 -4 -4 -4 -4 -4 -4 -4 -4 -4 -4 -4 -4 -4 -4 -4 -4 -4 -4 -4 -4 -4 -3 -3 -3 -3 -3 -3 -2 -2 -1 -1 -0 -0 0 0 1 1
-4 -4 -4 -4 -4 -4 -5 -5 -5 -5 -5 -5 -5 -5 -5 -5 -5 -5 -5 -5 -5 -5 -4 -4 -4 -4 -4 -4 -4 -4 -3 -3 -3 -3 -3 -2 -2 -1 -1 -1 -0 -0 0
-4 -4 -4 -5 -5 -5 -5 -5 -5 -5 -5 -5 -5 -5 -5 -6 -5 -5 -5 -5 -5 -5 -5 -5 -5 -5 -4 -4 -4 -4 -4 -4 -4 -3 -3 -3 -2 -2 -2 -1 -1 -1 -0
-5 -5 -5 -5 -5 -5 -6 -6 -6 -6 -6 -6 -6 -6 -6 -6 -6 -6 -6 -6 -6 -6 -6 -5 -5 -5 -5 -5 -5 -4 -4 -4 -4 -4 -4 -3 -3 -3 -3 -2 -2 -1 -1
-5 -5 -5 -6 -6 -6 -6 -6 -6 -7 -7 -7 -7 -7 -7 -7 -7 -7 -7 -6 -6 -6 -6 -6 -6 -6 -5 -5 -5 -5 -5 -4 -4 -4 -4 -4 -4 -3 -3 -3 -3 -2 -2
-6 -6 -6 -6 -6 -6 -7 -7 -7 -7 -7 -7 -7 -7 -7 -7 -7 -7 -7 -7 -7 -6 -6 -6 -6 -6 -6 -6 -5 -5 -5 -5 -5 -5 -4 -4 -4 -4 -4 -4 -3 -3 -3
-6 -6 -7 -7 -7 -7 -7 -7 -7 -8 -8 -8 -8 -8 -8 -8 -8 -8 -7 -7 -7 -7 -7 -6 -6 -6 -6 -6 -6 -6 -6 -6 -5 -5 -5 -5 -5 -4 -4 -4 -4 -4 -3
-7 -7 -7 -7 -7 -8 -8 -8 -8 -8 -8 -8 -8 -8 -8 -8 -8 -8 -8 -8 -7 -7 -7 -7 -7 -7 -7 -7 -7 -6 -6 -6 -6 -6 -5 -5 -5 -5 -5 -5 -4 -4 -4
-7 -7 -8 -8 -8 -8 -8 -8 -8 -8 -8 -9 -9 -9 -9 -9 -9 -9 -8 -8 -8 -8 -8 -8 -8 -7 -7 -7 -7 -7 -7 -6 -6 -6 -6 -6 -5 -5 -5 -5 -5 -5 -5
-8 -8 -8 -8 -8 -9 -9 -9 -9 -9 -9 -9 -9 -9 -9 -9 -9 -9 -9 -9 -8 -8 -8 -8 -8 -8 -7 -7 -7 -7 -7 -7 -7 -6 -6 -6 -6 -6 -5 -5 -5 -5 -5
-8 -8 -9 -9 -9 -9 -9 -9 -9 -9 -9 -9 -9 -9 -9 -9 -9 -9 -9 -9 -9 -9 -8 -8 -8 -8 -8 -8 -8 -8 -8 -7 -7 -7 -7 -6 -6 -6 -6 -6 -6 -6 -6
-9 -9 -9 -9 -9 -9 -9 -9 -9 -9 -10 -9 -9 -9 -9 -10 -10 -10 -9 -9 -9 -9 -9 -9 -9 -8 -8 -8 -8 -8 -8 -8 -8 -8 -7 -7 -7 -7 -7 -6 -6 -6 -6
-9 -9 -9 -9 -9 -9 -10 -10 -10 -10 -10 -10 -10 -10 -10 -10 -10 -10 -10 -10 -10 -9 -9 -9 -9 -9 -9 -8 -8 -9 -9 -9 -9 -8 -8 -8 -8 -8 -7 -7 -7 -7 -7
-9 -10 -10 -10 -10 -10 -10 -10 -10 -10 -10 -10 -11 -11 -10 -10 -10 -10 -10 -10 -10 -10 -10 -9 -9 -9 -9 -9 -9 -9 -9 -9 -9 -9 -9 -9 -8 -8 -8 -8 -8 -7 -7
-10 -10 -10 -10 -10 -10 -10 -10 -10 -10 -11 -11 -11 -11 -11 -11 -11 -11 -10 -10 -10 -10 -10 -10 -10 -10 -10 -10 -10 -10 -10 -10 -10 -10 -10 -10 -9 -9 -9 -8 -8 -8 -8
-10 -10 -11 -11 -11 -11 -11 -11 -11 -11 -11 -11 -11 -11 -11 -11 -11 -11 -10 -10 -10 -10 -10 -10 -10 -10 -10 -10 -10 -10 -10 -10 -10 -10 -10 -10 -10 -10 -9 -9 -9 -9 -8
-11 -11 -11 -11 -11 -11 -11 -11 -11 -11 -11 -11 -11 -11 -11 -11 -11 -11 -11 -11 -11 -11 -11 -11 -11 -11 -11 -11 -11 -11 -11 -11 -11 -11 -11 -11 -10 -10 -10 -10 -9 -9 -9
-11 -11 -12 -12 -12 -11 -11 -12 -12 -12 -12 -11 -11 -11 -12 -12 -12 -12 -12 -11 -11 -11 -12 -12 -12 -12 -12 -12 -11 -11 -11 -11 -11 -11 -11 -11 -11 -11 -11 -10 -10 -10 -10
-11 -12 -12 -12 -12 -12 -12 -12 -12 -12 -12 -12 -12 -12 -12 -12 -12 -12 -12 -12 -12 -12 -12 -12 -12 -12 -12 -12 -12 -12 -12 -11 -11 -11 -11 -11 -11 -11 -11 -10 -10 -10 -10
-12 -12 -12 -12 -12 -12 -12 -12 -12 -12 -12 -13 -12 -12 -12 -12 -12 -12 -12 -13 -13 -13 -13 -13 -12 -12 -12 -12 -12 -12 -12 -12 -11 -11 -11 -11 -11 -11 -11 -11 -11 -10 -10
-12 -12 -12 -12 -12 -12 -12 -12 -13 -13 -13 -13 -13 -13 -13 -13 -13 -13 -13 -13 -13 -13 -13 -13 -13 -13 -13 -13 -12 -12 -12 -12 -11 -11 -11 -11 -11 -11 -11 -11 -11 -11 -10
-12 -12 -13 -13 -13 -13 -13 -13 -13 -13 -13 -13 -13 -13 -13 -13 -13 -13 -13 -13 -13 -13 -13 -13 -13 -13 -13 -13 -13 -12 -12 -12 -12 -12 -11 -11 -11 -11 -11 -11 -11 -11 -11
-12 -13 -13 -13 -13 -13 -13 -13 -13 -13 -13 -13 -13 -13 -13 -13 -13 -13 -13 -13 -13 -13 -13 -13 -13 -13 -13 -13 -13 -13 -12 -12 -12 -12 -12 -12 -12 -11 -11 -11 -11 -11 -11
-13 -13 -13 -13 -13 -13 -13 -13 -13 -13 -13 -13 -13 -13 -13 -13 -13 -13 -13 -13 -13 -13 -13 -13 -13 -13 -13 -13 -13 -13 -12 -12 -12 -12 -12 -12 -12 -12 -12 -12 -12 -11 -11
-13 -13 -13 -13 -13 -13 -13 -13 -13 -13 -13 -13 -13 -13 -13 -13 -13 -13 -13 -13 -13 -13 -13 -13 -13 -13 -13 -13 -13 -13 -12 -12 -12 -12 -12 -12 -12 -12 -12 -12 -12 -12 -12
-13 -13 -13 -13 -13 -13 -13 -14 -14 -14 -14 -14 -14 -14 -14 -14 -14 -14 -14 -13 -13 -13 -13 -13 -13 -13 -13 -13 -13 -13 -12 -12 -12 -12 -12 -12 -12 -12 -12 -12 -12 -12 -12
Wind_Speed
1 1 1 2 2 3 3 3 3 4 4 4 5 5 5 6 5 5 5 5 6 6 6 6 6 6 5 5 5 5 5 6 9 8 6 6 6 7 8 8 9 9 10
1 1 2 2 2 2 3 3 4 4 5 5 5 5 6 6 5 5 6 6 6 6 6 6 7 6 6 5 5 6 6 6 7 10 7 6 7 7 7 7 8 8 8
1 2 2 2 2 3 3 4 4 4 5 5 5 5 6 6 6 6 6 6 6 7 7 7 8 7 7 6 6 7 6 7 6 8 8 6 6 6 6 7 7 6 8
1 2 3 3 3 3 3 4 4 5 5 5 5 6 6 7 7 7 7 7 7 8 8 8 8 8 8 8 8 8 7 7 7 7 8 7 6 6 5 5 6 5 6
2 3 3 3 3 3 3 4 4 5 6 5 5 6 6 6 7 7 7 8 8 8 8 8 9 11 12 10 9 7 7 7 7 7 8 7 7 5 5 5 6 5 5
3 3 3 3 3 4 4 4 4 5 5 5 6 6 7 7 11 14 11 8 8 8 9 9 9 10 12 14 15 13 11 9 8 8 8 8 8 6 5 6 6 6 6
3 3 3 3 4 4 5 5 5 5 5 6 6 6 7 9 13 14 14 9 7 8 9 9 9 9 11 9 11 14 13 15 14 10 9 9 9 7 7 7 7 7 7
3 3 3 3 4 5 5 5 5 5 6 6 7 7 7 9 14 14 14 9 7 8 9 9 9 9 10 10 9 9 9 10 12 10 9 9 9 8 7 8 8 7 7
4 4 4 4 5 5 6 5 5 6 6 6 7 7 7 9 13 14 13 6 7 8 9 9 10 9 14 15 10 9 9 9 12 14 15 14 15 15 12 6 6 6 8
4 4 4 5 5 6 6 6 6 6 7 7 8 7 7 8 12 14 13 6 7 7 7 9 12 13 15 15 9 8 9 9 8 9 9 10 10 11 13 9 7 7 7
4 5 5 5 6 6 6 5 5 6 6 6 7 7 7 8 11 13 13 7 7 7 7 7 8 15 16 15 12 8 11 10 7 7 7 7 6 6 7 7 7 7 8
4 5 5 5 6 5 5 5 5 5 6 6 6 7 6 7 9 11 13 12 11 7 7 7 9 15 15 14 11 12 14 10 5 5 6 6 6 6 5 5 6 7 7
4 5 5 6 5 5 5 5 5 4 4 5 5 6 6 6 7 12 13 13 14 8 8 12 14 15 13 10 11 13 10 5 5 5 6 6 5 5 5 5 5 5 6
4 5 5 5 5 5 5 4 4 4 4 6 6 6 7 6 6 6 6 8 10 9 8 10 13 12 10 9 8 7 5 5 5 5 6 5 4 4 5 4 5 5 5
4 5 5 5 5 5 5 4 5 5 6 6 5 6 6 7 9 12 9 7 6 7 8 6 5 5 5 4 5 4 4 4 5 5 5 5 5 5 5 4 4 5 6
5 5 4 4 5 5 5 6 8 8 10 11 11 10 8 10 14 14 14 13 13 11 7 5 5 6 5 5 5 5 5 5 4 4 5 5 5 5 6 5 4 5 6
4 5 5 5 5 5 5 5 6 7 10 10 11 11 11 13 13 14 13 12 12 10 5 4 5 5 5 6 5 5 5 5 4 4 4 4 5 5 5 5 5 5 6
4 6 6 4 4 5 5 5 5 6 7 6 8 11 12 13 13 13 13 10 6 6 4 5 5 5 5 5 6 6 5 5 4 4 4 4 4 5 5 6 6 6 6
4 4 4 4 5 5 5 5 5 5 6 6 6 8 11 12 12 12 10 5 5 5 5 5 5 5 5 6 6 6 6 5 5 5 5 5 5 5 6 6 6 8 7
4 7 6 5 4 4 4 4 4 5 5 5 6 6 7 7 6 7 6 5 5 5 5 5 6 6 6 6 6 6 6 5 5 5 5 5 5 5 6 7 6 6 6
4 5 7 5 4 4 4 4 4 4 5 5 6 8 10 6 6 6 5 5 5 5 6 6 6 6 6 6 6 6 7 6 5 5 5 5 5 6 6 6 6 6 5
3 3 3 4 4 4 4 4 4 4 5 6 6 7 11 6 5 5 6 6 5 5 5 5 6 6 6 6 6 6 6 6 6 5 5 5 5 5 6 5 6 5 5
3 3 4 4 3 6 6 4 4 4 5 5 6 6 6 5 5 5 6 6 6 6 6 6 6 6 7 8 7 7 7 7 7 6 6 6 6 5 5 6 6 6 5
3 3 3 4 4 4 4 4 5 5 5 5 6 5 5 5 6 6 6 6 6 6 7 7 7 9 11 10 9 9 9 10 10 8 8 7 6 5 5 5 5 5 5
2 3 3 3 4 4 4 5 5 5 5 6 6 6 6 6 6 6 6 6 7 7 8 9 9 9 11 12 12 12 13 14 13 9 7 6 6 5 5 5 5 5 5
2 3 3 3 4 4 4 5 5 5 5 6 6 6 6 6 6 7 6 6 7 7 8 9 10 12 13 12 13 13 14 14 13 12 8 5 4 4 4 4 5 4 4
Wind_Direction
290 301 303 294 300 307 300 298 310 313 312 310 310 310 310 309 309 304 302 303 301 300 298 296 292 290 285 276 270 265 264 263 272 282 284 289 290 294 290 285 279 271 265
269 286 280 285 293 299 300 300 308 307 308 309 309 306 306 307 307 302 299 302 299 298 297 295 292 290 287 282 276 268 265 261 265 277 282 283 282 282 284 281 278 274 269
282 281 280 280 288 289 291 297 302 303 301 305 304 302 301 302 303 301 298 295 294 293 291 287 286 284 282 282 277 272 268 268 264 269 277 278 279 276 283 282 277 269 271
278 269 271 272 276 278 284 292 296 300 297 296 300 299 298 300 299 296 298 295 290 287 287 284 281 279 277 279 275 270 269 267 264 265 271 273 275 272 272 271 280 269 268
271 264 264 272 275 282 285 289 294 298 300 296 295 296 296 295 292 291 290 291 289 287 287 285 282 281 280 281 279 274 270 266 264 263 266 270 270 270 267 270 273 278 276
269 264 270 273 277 280 283 285 293 294 294 292 289 290 291 297 298 300 300 293 291 291 291 288 285 282 284 287 288 286 281 274 269 266 267 263 265 265 269 269 273 271 278
277 273 269 275 282 283 289 291 288 290 292 290 287 286 286 290 298 300 301 304 298 292 291 291 293 291 292 283 285 287 285 281 275 269 266 266 268 263 263 267 268 273 269
281 283 289 286 285 286 285 284 285 284 286 283 283 281 283 290 299 301 304 305 294 292 291 288 287 287 286 284 279 280 277 276 274 270 262 263 265 264 255 258 266 276 281
288 292 294 295 291 285 283 283 284 283 284 283 283 282 283 289 297 300 304 296 291 289 290 290 290 286 288 291 287 283 282 280 281 277 272 269 269 268 265 263 261 268 275
287 294 294 290 287 284 277 277 280 283 285 291 292 286 281 282 293 301 304 294 293 293 293 292 293 293 293 293 286 280 280 283 287 289 288 280 275 272 267 253 246 255 269
298 298 296 292 287 282 279 278 278 284 285 282 285 286 281 287 297 301 303 302 296 296 296 297 296 299 299 298 294 282 282 289 286 284 283 279 273 267 262 252 246 245 256
300 297 293 291 293 297 288 286 282 280 282 282 285 290 285 288 299 301 305 307 308 299 295 295 296 301 302 302 298 294 295 295 286 283 282 278 278 277 270 264 256 256 256
296 294 295 298 297 299 290 289 289 285 289 294 293 295 299 300 301 307 308 309 309 306 297 299 303 305 306 302 298 299 300 291 282 279 277 277 278 284 287 284 279 272 268
293 297 301 300 301 301 299 295 291 288 289 295 298 299 300 300 298 301 302 303 307 306 303 304 309 310 307 301 300 300 294 282 281 275 275 280 286 285 280 280 279 282 280
295 299 305 306 303 301 301 291 291 277 280 289 288 289 296 299 302 311 313 309 308 304 312 309 309 312 309 307 304 297 290 287 285 280 281 284 284 284 284 278 275 280 273
301 304 303 304 305 306 306 308 304 303 305 306 306 305 305 306 312 315 318 318 319 320 321 315 314 317 316 313 309 304 300 292 284 281 281 279 282 281 283 284 276 268 269
294 299 301 305 306 307 307 309 311 316 314 314 316 316 317 318 319 320 322 325 325 328 325 315 313 315 315 314 311 308 307 303 294 285 282 279 280 280 280 279 274 269 270
299 300 303 299 300 301 301 301 301 307 314 317 319 319 321 324 325 325 328 332 330 330 319 315 314 316 315 313 311 310 308 304 297 291 283 277 273 273 275 272 268 265 268
298 297 297 296 297 300 303 303 302 303 306 311 316 319 322 324 325 326 332 330 321 320 318 315 314 315 312 310 309 309 305 297 294 290 283 278 272 270 270 269 268 269 269
296 300 307 304 305 308 307 304 304 304 306 309 311 314 319 320 322 326 329 325 321 317 316 314 313 312 310 308 306 305 304 297 292 287 283 279 276 270 268 268 267 266 264
293 297 306 308 305 306 308 304 301 301 303 306 306 309 317 322 320 319 319 318 316 314 312 311 310 309 308 306 304 302 302 297 290 285 283 280 276 274 271 268 265 262 265
292 295 298 301 305 308 310 310 307 304 305 306 307 310 317 323 317 314 313 313 312 310 309 306 305 303 303 302 302 301 300 298 294 288 284 282 277 276 275 269 265 261 259
291 295 302 306 309 310 318 320 317 313 308 306 306 310 313 313 311 312 313 313 313 311 309 307 305 304 301 298 295 291 288 289 289 287 282 281 278 274 273 270 266 264 258
291 295 299 304 308 309 310 312 313 311 312 312 312 312 312 313 312 312 312 311 311 308 306 304 301 300 301 301 300 296 291 290 287 283 277 276 277 277 275 273 273 269 265
297 297 300 302 305 306 306 308 309 309 310 311 312 313 314 314 312 311 310 310 309 308 306 305 303 301 301 300 299 299 301 302 300 294 281 278 275 270 270 271 269 269 266
304 304 304 303 302 302 302 303 305 307 308 308 309 309 310 310 310 310 310 311 311 310 308 305 304 303 302 303 303 305 308 309 310 308 300 285 280 275 275 274 266 263 263
Height
1497 1497 1496 1496 1495 1494 1493 1492 1491 1490 1488 1487 1485 1484 1482 1481 1480 1479 1477 1477 1476 1475 1474 1473 1472 1472 1471 1471 1471 1471 1470 1469 1466 1463 1465 1464 1464 1464 1464 1465 1465 1465 1466
1494 1493 1492 1492 1491 1490 1489 1488 1487 1486 1484 1483 1481 1480 1478 1477 1476 1474 1473 1472 1471 1470 1469 1469 1468 1467 1466 1466 1466 1465 1465 1465 1463 1460 1459 1459 1458 1458 1458 1458 1459 1459 1459
1490 1489 1488 1488 1487 1486 1485 1484 1483 1481 1480 1479 1477 1475 1474 1473 1471 1470 1469 1468 1467 1466 1465 1464 1463 1462 1461 1461 1460 1460 1460 1459 1458 1456 1454 1453 1452 1453 1452 1452 1452 1452 1453
1486 1485 1484 1483 1482 1482 1481 1480 1478 1477 1476 1474 1473 1471 1470 1468 1467 1466 1464 1463 1462 1461 1460 1459 1458 1457 1456 1455 1455 1454 1454 1453 1453 1451 1449 1447 1447 1447 1447 1446 1445 1446 1446
1481 1480 1480 1479 1478 1477 1476 1475 1474 1473 1471 1470 1468 1467 1465 1464 1462 1461 1460 1459 1457 1456 1455 1454 1453 1452 1451 1450 1449 1448 1448 1447 1446 1445 1443 1442 1441 1441 1441 1441 1440 1439 1439
1477 1476 1475 1475 1474 1473 1472 1470 1469 1468 1467 1465 1464 1462 1461 1459 1458 1457 1456 1454 1453 1451 1449 1448 1447 1446 1445 1444 1444 1443 1442 1442 1440 1440 1438 1437 1436 1436 1436 1436 1435 1434 1432
1473 1472 1471 1470 1469 1468 1467 1466 1465 1463 1462 1460 1459 1457 1456 1454 1453 1452 1451 1450 1447 1446 1444 1443 1441 1440 1440 1438 1437 1436 1435 1435 1435 1434 1432 1431 1431 1431 1431 1430 1430 1429 1427
1469 1468 1467 1466 1465 1464 1463 1461 1460 1459 1457 1456 1454 1453 1451 1449 1448 1447 1446 1444 1442 1440 1439 1437 1436 1434 1433 1433 1431 1429 1428 1428 1427 1427 1426 1425 1425 1425 1425 1425 1424 1422 1421
1465 1464 1463 1462 1460 1459 1458 1457 1455 1454 1452 1451 1449 1448 1446 1444 1443 1442 1441 1439 1437 1435 1433 1432 1431 1429 1428 1427 1425 1423 1422 1421 1420 1420 1419 1418 1418 1418 1419 1418 1418 1417 1415
1461 1460 1458 1457 1456 1455 1454 1452 1451 1450 1448 1447 1445 1443 1442 1440 1439 1438 1437 1434 1432 1430 1428 1426 1425 1423 1422 1421 1419 1417 1415 1414 1413 1413 1412 1411 1411 1411 1411 1412 1411 1411 1410
1458 1456 1454 1453 1452 1450 1449 1448 1447 1445 1444 1442 1440 1439 1437 1436 1434 1433 1432 1430 1427 1425 1422 1420 1419 1418 1416 1415 1413 1411 1410 1409 1407 1406 1405 1404 1404 1404 1404 1404 1405 1405 1404
1454 1452 1451 1449 1448 1446 1445 1443 1442 1441 1439 1437 1436 1434 1433 1431 1430 1428 1427 1425 1423 1420 1417 1415 1414 1412 1411 1409 1407 1405 1405 1403 1401 1400 1399 1397 1397 1397 1397 1397 1398 1398 1398
1450 1448 1447 1445 1444 1442 1441 1439 1438 1437 1435 1433 1432 1430 1428 1427 1425 1424 1422 1420 1418 1415 1413 1411 1409 1407 1405 1403 1401 1400 1399 1397 1396 1394 1393 1392 1391 1391 1391 1391 1391 1391 1391
1446 1445 1443 1441 1440 1438 1437 1436 1434 1432 1431 1429 1428 1426 1424 1422 1421 1419 1417 1415 1412 1410 1408 1405 1404 1401 1399 1397 1396 1394 1393 1392 1390 1389 1387 1386 1386 1385 1385 1385 1384 1384 1383
1443 1441 1439 1438 1436 1435 1434 1433 1431 1429 1428 1427 1424 1423 1420 1418 1416 1415 1413 1410 1408 1406 1403 1401 1398 1396 1393 1392 1390 1389 1387 1386 1385 1383 1382 1381 1380 1379 1379 1379 1379 1378 1378
1439 1438 1436 1434 1433 1432 1430 1428 1427 1426 1424 1423 1421 1420 1417 1416 1413 1411 1409 1406 1404 1402 1400 1396 1394 1392 1390 1387 1385 1383 1382 1380 1379 1377 1376 1376 1375 1374 1373 1373 1373 1373 1372
1437 1435 1433 1432 1430 1428 1427 1424 1422 1421 1420 1419 1417 1416 1414 1412 1409 1407 1404 1402 1400 1398 1395 1393 1391 1388 1386 1384 1381 1379 1377 1375 1374 1372 1371 1370 1370 1369 1368 1368 1367 1367 1366
1434 1432 1431 1429 1427 1425 1424 1422 1420 1417 1415 1414 1413 1411 1410 1408 1406 1403 1401 1398 1396 1394 1392 1389 1387 1385 1383 1380 1378 1375 1373 1371 1370 1368 1367 1366 1365 1364 1363 1362 1362 1361 1360
1431 1429 1427 1426 1424 1422 1420 1419 1417 1415 1413 1411 1409 1407 1406 1404 1402 1400 1397 1395 1392 1390 1388 1386 1384 1382 1379 1377 1374 1371 1369 1367 1365 1364 1363 1362 1361 1359 1358 1357 1356 1355 1355
1427 1426 1425 1423 1421 1419 1417 1416 1414 1413 1411 1409 1407 1405 1403 1401 1398 1395 1394 1391 1389 1387 1385 1383 1380 1378 1376 1373 1370 1368 1365 1363 1361 1360 1358 1357 1356 1355 1353 1352 1351 1350 1349
1424 1423 1422 1420 1419 1417 1415 1413 1412 1410 1408 1406 1405 1403 1401 1398 1395 1393 1391 1389 1386 1384 1382 1379 1377 1374 1372 1370 1367 1364 1361 1359 1357 1356 1354 1352 1351 1350 1348 1347 1346 1345 1344
1422 1420 1419 1418 1416 1414 1413 1411 1409 1408 1406 1404 1402 1400 1398 1396 1393 1391 1388 1386 1384 1381 1379 1376 1374 1371 1369 1366 1364 1361 1358 1355 1353 1352 1350 1348 1346 1345 1343 1342 1341 1340 1339
1419 1418 1417 1415 1414 1412 1410 1409 1407 1405 1403 1401 1399 1397 1395 1393 1391 1388 1386 1383 1381 1378 1376 1373 1370 1368 1365 1363 1360 1357 1355 1352 1350 1348 1346 1344 1342 1340 1339 1337 1336 1335 1334
1417 1415 1414 1413 1411 1409 1408 1406 1405 1403 1401 1399 1397 1395 1393 1390 1388 1385 1383 1380 1378 1375 1373 1370 1367 1364 1361 1359 1356 1354 1351 1349 1347 1344 1342 1340 1338 1336 1335 1333 1332 1330 1329
1414 1413 1411 1410 1409 1407 1406 1404 1402 1400 1398 1396 1394 1392 1390 1388 1385 1382 1380 1377 1375 1372 1369 1366 1363 1361 1358 1355 1353 1350 1348 1345 1343 1342 1340 1337 1335 1333 1331 1329 1328 1326 1325
1412 1410 1409 1408 1407 1405 1403 1401 1400 1398 1396 1394 1392 1389 1387 1385 1382 1380 1377 1374 1371 1369 1366 1363 1360 1358 1355 1352 1350 1347 1344 1342 1341 1339 1337 1334 1332 1330 1328 1326 1324 1323 1322